Simultaneous Nadir Overpasses (SNOs) Predictions

Prediction of SNOs between METOP-B and TERRA Satellite Orbit:

Table of predicted SNOs for the next 14.0 days since TLE Epoch: 1/28/2017
Index Date (METOP-B) Time (METOP-B) Lat,Lon (METOP-B) SZA (METOP-B ) Date (TERRA) Time (TERRA) Lat,Lon (TERRA) SZA (TERRA ) Distance(km) Time Diff (sec)
1 01/28/2017 15:38:16 -81.30, 172.20 78.41 01/28/2017 15:38:26 -81.29, 172.30 78.40 1.76 10
2 01/28/2017 16:28:55 81.31, -19.81 101.66 01/28/2017 16:27:52 81.30, -19.97 101.61 2.67 63
3 01/31/2017 11:12:36 -81.30,-121.22 79.18 01/31/2017 11:12:41 -81.30,-121.12 79.16 1.84 5
4 01/31/2017 12:03:15 81.31, 46.76 100.89 01/31/2017 12:02:07 81.31, 46.60 100.84 2.78 68
5 02/03/2017 05:56:17 81.29, 137.28 99.96 02/03/2017 05:57:30 81.29, 137.46 100.01 3.11 73
6 02/03/2017 06:46:56 -81.30, -54.66 79.98 02/03/2017 06:46:56 -81.31, -54.55 79.96 2.17 0
7 02/03/2017 07:37:34 81.31, 113.32 100.09 02/03/2017 07:36:21 81.31, 113.15 100.04 2.90 73
8 02/06/2017 01:30:36 81.29,-156.18 99.12 02/06/2017 01:31:44 81.30,-156.00 99.17 3.12 68
9 02/06/2017 02:21:16 -81.30, 11.49 80.86 02/06/2017 02:21:11 -81.29, 11.63 80.85 2.44 5
10 02/08/2017 21:04:56 81.29, -89.66 98.25 02/08/2017 21:05:59 81.30, -89.47 98.30 3.27 63




NCC Satellite Simultaneous Nadir Overpasses (SNOs) Prediction Service
